Weather History for Nashua, NH

Change the Weather History Date:

Tuesday, May 6, 2014

  Actual Average Record
Temperature  
Mean Temperature 51 °F -  
Max Temperature 61 °F 63 °F 83 °F (1960)
Min Temperature 41 °F 40 °F 26 °F (1961)
Degree Days  
Heating Degree Days 14    
Growing Degree Days 1 (Base 50)    
Moisture  
Dew Point 30 °F    
Average Humidity 43    
Maximum Humidity 85    
Minimum Humidity 24    
Precipitation  
Precipitation 0.00 in - - ()
Sea Level Pressure  
Sea Level Pressure 30.64 in    
Wind  
Wind Speed 7 mph (NNW)    
Max Wind Speed 20 mph    
Max Gust Speed 26 mph    
Visibility 10 miles    
Events      
Averages and records for this station are not official NWS values.
T = Trace of Precipitation, MM = Missing Value Source: NWS Daily Summary

Daily Weather History Graph

Daily Weather History Graph

Search for Another Location

Airport:

Trip Planner

Search our weather history database for the weather conditions in past years. The results will help you decide how hot, cold, wet, or windy it might be!

Date:

Astronomy

May. 06, 2014 Rise Set
Actual Time 5:33 AM EDT 7:52 PM EDT
Civil Twilight 5:02 AM EDT 8:23 PM EDT
Nautical Twilight 4:23 AM EDT 9:02 PM EDT
Astronomical Twilight 3:40 AM EDT 9:46 PM EDT
Moon 11:48 AM EDT (5/6) 1:08 AM EDT (5/6)
Length of Visible Light 15h 21m
Length of Day
14h 18m
Waxing Crescent, 46% of the Moon is Illuminated
May 6
Waxing Crescent
May 6
First Quarter
May 14
Full
May 21
Last Quarter
May 28
New

Hourly Weather History & Observations

Time (EDT) Temp. Dew Point Humidity Pressure Visibility Wind Dir Wind Speed Gust Speed Precip Events Conditions
12:51 AM 47.8 °F 36.9 °F 66% 30.61 in 10.0 mi NW 8.1 mph - N/A   Clear
1:51 AM 46.9 °F 36.9 °F 68% 30.60 in 10.0 mi Calm Calm - N/A   Clear
2:51 AM 43.0 °F 37.9 °F 82% 30.60 in 10.0 mi Calm Calm - N/A   Clear
3:51 AM 41.0 °F 36.9 °F 85% 30.59 in 10.0 mi Calm Calm - N/A   Clear
8:51 AM 54.9 °F 34.9 °F 47% 30.62 in 10.0 mi NNW 10.4 mph - N/A   Clear
10:51 AM 59.0 °F 28.0 °F 31% 30.60 in 10.0 mi NNW 15.0 mph - N/A   Clear
11:51 AM 61.9 °F 27.1 °F 27% 30.60 in 10.0 mi NW 16.1 mph 25.3 mph N/A   Mostly Cloudy
12:51 PM 61.0 °F 29.1 °F 30% 30.58 in 10.0 mi North 15.0 mph 23.0 mph N/A   Scattered Clouds
1:51 PM 59.9 °F 31.1 °F 34% 30.58 in 10.0 mi NW 8.1 mph 16.1 mph 0.00 in   Mostly Cloudy
2:51 PM 57.9 °F 32.9 °F 39% 30.60 in 10.0 mi North 6.9 mph - 0.00 in   Mostly Cloudy
3:51 PM 61.9 °F 28.0 °F 28% 30.59 in 10.0 mi NNW 15.0 mph 25.3 mph 0.00 in   Mostly Cloudy
4:51 PM 59.9 °F 26.1 °F 27% 30.61 in 10.0 mi North 15.0 mph 23.0 mph N/A   Mostly Cloudy
5:51 PM 61.9 °F 25.2 °F 25% 30.62 in 10.0 mi NW 19.6 mph 26.5 mph N/A   Scattered Clouds
6:51 PM 61.0 °F 24.1 °F 24% 30.65 in 10.0 mi NNW 12.7 mph - N/A   Partly Cloudy
7:51 PM 57.9 °F 24.1 °F 27% 30.69 in 10.0 mi NNW 11.5 mph - N/A   Clear
8:51 PM 52.9 °F 28.0 °F 38% 30.73 in 10.0 mi Calm Calm - N/A   Clear
9:51 PM 52.0 °F 27.1 °F 38% 30.76 in 10.0 mi Calm Calm - N/A   Clear
10:51 PM 46.9 °F 30.0 °F 52% 30.78 in 10.0 mi Calm Calm - N/A   Clear
11:51 PM 47.8 °F 28.0 °F 46% 30.79 in 10.0 mi Calm Calm - N/A   Clear